• In Romania
  • List of Countries
  • For 7 days
  • Water Temperature
  • Satellite Maps
  • Weather Map
  • Weather Widgets
  • user-avatar
    Login

    Hourly Weather Zildyarovo

    Today, 21 October, Sunday

    Time Temperature Precipitation Wind Pressure Humidity
    00:00 +5°C° 0 mm 3 mps 744 mmHg 92%
    01:00 +6°C° 0 mm 2 mps 745 mmHg 92%
    02:00 +5°C° 0 mm 2 mps 745 mmHg 92%
    03:00 +5°C° 0 mm 2 mps 745 mmHg 92%
    04:00 +4°C° 0 mm 2 mps 746 mmHg 92%
    05:00 +4°C° 0 mm 2 mps 746 mmHg 93%
    06:00 +4°C° 0 mm 2 mps 747 mmHg 93%
    07:00 +3°C° 0 mm 2 mps 747 mmHg 93%
    08:00 +3°C° 0 mm 3 mps 747 mmHg 89%
    09:00 +4°C° 0 mm 3 mps 748 mmHg 84%
    10:00 +5°C° 0 mm 3 mps 748 mmHg 79%
    11:00 +7°C° 0 mm 3 mps 749 mmHg 75%
    12:00 +7°C° 0 mm 3 mps 749 mmHg 70%
    13:00 +8°C° 0 mm 3 mps 750 mmHg 65%
    14:00 +8°C° 0 mm 3 mps 750 mmHg 65%
    15:00 +8°C° 0 mm 3 mps 750 mmHg 65%
    16:00 +7°C° 0 mm 3 mps 750 mmHg 65%
    17:00 +7°C° 0 mm 3 mps 751 mmHg 69%
    18:00 +5°C° 0 mm 3 mps 751 mmHg 72%
    19:00 +5°C° 0 mm 2 mps 751 mmHg 76%
    20:00 +5°C° 0 mm 2 mps 752 mmHg 77%
    21:00 +4°C° 0 mm 2 mps 752 mmHg 77%
    22:00 +4°C° 0 mm 2 mps 752 mmHg 78%
    23:00 +3°C° 0 mm 2 mps 752 mmHg 79%

    Tomorrow, 22 October, Monday

    Time Temperature Precipitation Wind Pressure Humidity
    00:00 +3°C° 0 mm 2 mps 753 mmHg 80%
    01:00 +3°C° 0 mm 1 mps 753 mmHg 81%
    02:00 +3°C° 0 mm 1 mps 753 mmHg 82%
    03:00 +3°C° 0 mm 1 mps 753 mmHg 82%
    04:00 +3°C° 0 mm 1 mps 754 mmHg 83%
    05:00 +3°C° 0 mm 1 mps 754 mmHg 83%
    06:00 +2°C° 0 mm 1 mps 754 mmHg 84%
    07:00 +2°C° 0 mm 1 mps 754 mmHg 85%
    08:00 +3°C° 0 mm 1 mps 754 mmHg 79%
    09:00 +4°C° 0 mm 1 mps 754 mmHg 74%
    10:00 +5°C° 0 mm 1 mps 755 mmHg 69%
    11:00 +5°C° 0 mm 1 mps 754 mmHg 64%
    12:00 +6°C° 0 mm 1 mps 754 mmHg 60%
    13:00 +7°C° 0 mm 1 mps 754 mmHg 56%
    14:00 +7°C° 0 mm 1 mps 754 mmHg 56%
    15:00 +7°C° 0 mm 1 mps 754 mmHg 56%
    16:00 +7°C° 0 mm 1 mps 754 mmHg 56%
    17:00 +6°C° 0 mm 1 mps 754 mmHg 60%
    18:00 +6°C° 0 mm 1 mps 754 mmHg 64%
    19:00 +5°C° 0 mm 1 mps 754 mmHg 68%
    20:00 +3°C° 0 mm 2 mps 753 mmHg 69%
    21:00 +3°C° 0 mm 2 mps 753 mmHg 70%
    22:00 +2°C° 0 mm 3 mps 753 mmHg 71%
    23:00 +2°C° 0 mm 3 mps 753 mmHg 71%

    Day after tomorrow, 23 October, Tuesday

    Time Temperature Precipitation Wind Pressure Humidity
    00:00 +1°C° 0 mm 3 mps 753 mmHg 72%
    01:00 +1°C° 0 mm 3 mps 752 mmHg 73%
    02:00 +1°C° 0 mm 3 mps 752 mmHg 73%
    03:00 0°C° 0 mm 4 mps 752 mmHg 74%
    04:00 0°C° 0 mm 4 mps 752 mmHg 74%
    05:00 -1°C° 0 mm 4 mps 752 mmHg 74%
    06:00 0°C° 0 mm 3 mps 751 mmHg 74%
    07:00 0°C° 0 mm 3 mps 751 mmHg 74%
    08:00 0°C° 0 mm 4 mps 751 mmHg 70%
    09:00 +3°C° 0 mm 4 mps 751 mmHg 65%
    10:00 +4°C° 0 mm 4 mps 751 mmHg 61%
    11:00 +5°C° 0 mm 5 mps 750 mmHg 57%
    12:00 +6°C° 0 mm 5 mps 750 mmHg 54%
    13:00 +7°C° 0 mm 5 mps 749 mmHg 50%
    14:00 +7°C° 0 mm 5 mps 749 mmHg 50%
    15:00 +7°C° 0 mm 5 mps 748 mmHg 51%
    16:00 +7°C° 0 mm 5 mps 748 mmHg 51%
    17:00 +6°C° 0 mm 5 mps 747 mmHg 55%
    18:00 +5°C° 0 mm 5 mps 747 mmHg 59%
    19:00 +5°C° 0 mm 5 mps 747 mmHg 63%
    20:00 +5°C° 0 mm 5 mps 746 mmHg 65%
    21:00 +5°C° 0 mm 5 mps 745 mmHg 67%
    22:00 +5°C° 0 mm 5 mps 745 mmHg 68%
    23:00 +5°C° 0 mm 5 mps 745 mmHg 71%

    24 October, Wednesday

    Time Temperature Precipitation Wind Pressure Humidity
    00:00 +6°C° 0 mm 5 mps 744 mmHg 73%
    01:00 +6°C° 0 mm 5 mps 744 mmHg 75%
    02:00 +6°C° 0.2 mm 5 mps 743 mmHg 76%
    03:00 +7°C° 0.2 mm 6 mps 743 mmHg 77%
    04:00 +7°C° 0.2 mm 6 mps 743 mmHg 79%
    05:00 +7°C° 0.3 mm 6 mps 742 mmHg 81%
    06:00 +7°C° 0.3 mm 6 mps 742 mmHg 83%
    07:00 +7°C° 0.3 mm 6 mps 742 mmHg 85%
    08:00 +8°C° 0 mm 7 mps 742 mmHg 82%
    09:00 +9°C° 0 mm 8 mps 741 mmHg 78%
    10:00 +8°C° 0 mm 9 mps 741 mmHg 75%
    11:00 +10°C° 0 mm 9 mps 741 mmHg 72%
    12:00 +11°C° 0 mm 9 mps 741 mmHg 68%
    13:00 +11°C° 0 mm 8 mps 741 mmHg 65%
    14:00 +11°C° 0 mm 8 mps 741 mmHg 65%
    15:00 +11°C° 0 mm 7 mps 741 mmHg 64%
    16:00 +11°C° 0 mm 6 mps 740 mmHg 63%
    17:00 +11°C° 0 mm 6 mps 741 mmHg 65%
    18:00 +10°C° 0 mm 6 mps 741 mmHg 66%
    19:00 +9°C° 0 mm 5 mps 741 mmHg 68%
    20:00 +9°C° 0 mm 5 mps 741 mmHg 67%
    21:00 +9°C° 0 mm 5 mps 741 mmHg 67%
    22:00 +9°C° 0 mm 5 mps 741 mmHg 66%
    23:00 +9°C° 0 mm 5 mps 741 mmHg 67%

    25 October, Thursday

    Time Temperature Precipitation Wind Pressure Humidity
    00:00 +9°C° 0 mm 5 mps 741 mmHg 67%
    01:00 +9°C° 0 mm 5 mps 741 mmHg 67%
    02:00 +8°C° 0 mm 5 mps 741 mmHg 70%
    03:00 +8°C° 0 mm 5 mps 741 mmHg 74%
    04:00 +7°C° 0 mm 5 mps 741 mmHg 77%
    05:00 +7°C° 0 mm 5 mps 741 mmHg 77%
    06:00 +7°C° 0 mm 5 mps 741 mmHg 77%
    07:00 +7°C° 0 mm 6 mps 741 mmHg 78%
    08:00 +8°C° 0 mm 6 mps 741 mmHg 74%
    09:00 +9°C° 0 mm 7 mps 740 mmHg 69%
    10:00 +10°C° 0 mm 8 mps 740 mmHg 65%
    11:00 +11°C° 0 mm 8 mps 740 mmHg 60%
    12:00 +12°C° 0 mm 9 mps 740 mmHg 54%
    13:00 +13°C° 0 mm 9 mps 739 mmHg 49%
    14:00 +13°C° 0 mm 9 mps 739 mmHg 48%
    15:00 +13°C° 0 mm 8 mps 739 mmHg 46%
    16:00 +13°C° 0 mm 8 mps 739 mmHg 45%
    17:00 +12°C° 0 mm 8 mps 738 mmHg 44%
    18:00 +12°C° 0 mm 9 mps 738 mmHg 43%
    19:00 +11°C° 0 mm 9 mps 738 mmHg 43%
    20:00 +11°C° 0 mm 9 mps 738 mmHg 43%
    21:00 +10°C° 0 mm 9 mps 738 mmHg 44%
    22:00 +10°C° 0 mm 9 mps 738 mmHg 44%
    23:00 +10°C° 0 mm 9 mps 738 mmHg 45%

    26 October, Friday

    Time Temperature Precipitation Wind Pressure Humidity
    00:00 +8°C° 0 mm 9 mps 737 mmHg 46%
    01:00 +8°C° 0 mm 9 mps 737 mmHg 47%
    02:00 +9°C° 0.1 mm 8 mps 737 mmHg 48%
    03:00 +9°C° 0.1 mm 8 mps 737 mmHg 49%
    04:00 +9°C° 0.1 mm 8 mps 736 mmHg 49%
    05:00 +9°C° 0.1 mm 8 mps 736 mmHg 50%
    06:00 +9°C° 0.1 mm 8 mps 735 mmHg 50%
    07:00 +9°C° 0.1 mm 8 mps 735 mmHg 51%
    08:00 +10°C° 0 mm 8 mps 735 mmHg 50%
    09:00 +10°C° 0 mm 8 mps 734 mmHg 48%
    10:00 +11°C° 0 mm 9 mps 734 mmHg 47%
    11:00 +12°C° 0 mm 8 mps 734 mmHg 46%
    12:00 +13°C° 0 mm 8 mps 734 mmHg 46%
    13:00 +15°C° 0 mm 8 mps 733 mmHg 45%
    14:00 +15°C° 0 mm 6 mps 733 mmHg 48%
    15:00 +15°C° 0 mm 5 mps 733 mmHg 51%
    16:00 +15°C° 0 mm 4 mps 733 mmHg 54%
    17:00 +14°C° 0.1 mm 4 mps 733 mmHg 59%
    18:00 +13°C° 0.1 mm 4 mps 733 mmHg 64%
    19:00 +12°C° 0.1 mm 5 mps 733 mmHg 70%
    20:00 +10°C° 0.2 mm 5 mps 734 mmHg 75%
    21:00 +9°C° 0.2 mm 5 mps 734 mmHg 80%
    22:00 +8°C° 0.2 mm 5 mps 735 mmHg 85%
    23:00 +8°C° 0 mm 5 mps 735 mmHg 83%
    Show more